Weather History for KWJF - October, 2013

Change the Weather History Date:

Monday, October 28, 2013

  Actual Average Record
Temperature  
Mean Temperature 54 °F 58 °F  
Max Temperature 61 °F 75 °F 90 °F (2003)
Min Temperature 47 °F 42 °F 25 °F (1970)
Degree Days  
Heating Degree Days 11    
Month to date heating degree days 178  
Since 1 July heating degree days 199  
Cooling Degree Days 0    
Month to date cooling degree days 16  
Year to date cooling degree days 2204  
Growing Degree Days 4 (Base 50)    
Moisture  
Dew Point 40 °F    
Average Humidity 58    
Maximum Humidity 80    
Minimum Humidity 36    
Precipitation  
Precipitation 0.03 in 0.02 in 0.21 in (1964)
Month to date precipitation 0.05 0.37  
Year to date precipitation 1.17 5.62  
Since 1 July precipitation 0.07 0.71  
Snow  
Snow 0.00 in - 0.00 in ()
Month to date snowfall 0.0  
Since 1 July snowfall 0.0  
Since 1 September snowfall 0.0  
Snow Depth 0.00 in    
Sea Level Pressure  
Sea Level Pressure 29.79 in    
Wind  
Wind Speed 19 mph (WSW)    
Max Wind Speed 30 mph    
Max Gust Speed 39 mph    
Visibility 10 miles    
Events Rain    
T = Trace of Precipitation, MM = Missing Value Source: NWS Daily Summary

Daily Weather History Graph

Daily Weather History Graph

Search for Another Location

Airport or City:

Trip Planner

Search our weather history database for the weather conditions in past years. The results will help you decide how hot, cold, wet, or windy it might be!

Date:

Astronomy

Oct. 28, 2013 Rise Set
Actual Time 7:10 AM PDT 6:02 PM PDT
Civil Twilight 6:44 AM PDT 6:28 PM PDT
Nautical Twilight 6:14 AM PDT 6:58 PM PDT
Astronomical Twilight 5:45 AM PDT 7:27 PM PDT
Moon 1:21 AM PDT 2:34 PM PDT
Length of Visible Light 11h 44m
Length of Day
10h 52m
Waning Crescent, 33% of the Moon is Illuminated
Oct 28
Waning Crescent
Nov 3
New
Nov 9
First Quarter
Nov 17
Full
Nov 25
Last Quarter

Hourly Weather History & Observations

Time (PDT) Temp. Dew Point Humidity Pressure Visibility Wind Dir Wind Speed Gust Speed Precip Events Conditions
12:56 AM 53.1 °F 46.0 °F 77% 29.70 in 10.0 mi SW 21.9 mph 35.7 mph N/A   Clear
1:56 AM 53.1 °F 46.9 °F 80% 29.70 in 10.0 mi WSW 23.0 mph 28.8 mph N/A   Scattered Clouds
2:10 AM 51.8 °F 46.4 °F 82% 29.74 in 10.0 mi WSW 21.9 mph 29.9 mph N/A   Mostly Cloudy
2:56 AM 52.0 °F 44.1 °F 74% 29.68 in 10.0 mi SW 25.3 mph 33.4 mph N/A   Partly Cloudy
3:56 AM 51.1 °F 44.1 °F 77% 29.68 in 10.0 mi SW 21.9 mph 31.1 mph N/A   Clear
4:56 AM 50.0 °F 42.1 °F 74% 29.72 in 10.0 mi WSW 18.4 mph - N/A   Overcast
5:56 AM 50.0 °F 42.1 °F 74% 29.73 in 10.0 mi WSW 18.4 mph - N/A   Overcast
6:56 AM 48.0 °F 41.0 °F 77% 29.73 in 10.0 mi WSW 24.2 mph 32.2 mph N/A   Mostly Cloudy
7:05 AM 48.2 °F 41.0 °F 76% 29.75 in 10.0 mi WSW 17.3 mph 31.1 mph N/A   Scattered Clouds
7:56 AM 48.0 °F 39.9 °F 74% 29.78 in 10.0 mi WSW 20.7 mph 28.8 mph N/A   Clear
8:56 AM 50.0 °F 39.0 °F 66% 29.81 in 10.0 mi WSW 19.6 mph - N/A   Overcast
9:56 AM 52.0 °F 39.9 °F 63% 29.82 in 10.0 mi WSW 19.6 mph - N/A   Mostly Cloudy
10:07 AM 53.6 °F 41.0 °F 62% 29.82 in 10.0 mi SW 17.3 mph 24.2 mph N/A   Overcast
10:41 AM 53.6 °F 41.0 °F 62% 29.83 in 10.0 mi WSW 21.9 mph - N/A   Scattered Clouds
10:56 AM 54.0 °F 39.9 °F 59% 29.83 in 10.0 mi WSW 20.7 mph 28.8 mph N/A   Mostly Cloudy
11:56 AM 57.0 °F 37.9 °F 49% 29.81 in 10.0 mi SW 24.2 mph 33.4 mph N/A   Partly Cloudy
12:56 PM 57.9 °F 35.1 °F 42% 29.78 in 10.0 mi SW 25.3 mph 35.7 mph N/A   Clear
1:56 PM 61.0 °F 33.1 °F 35% 29.75 in 10.0 mi SW 23.0 mph 33.4 mph N/A   Mostly Cloudy
2:56 PM 59.0 °F 35.1 °F 41% 29.76 in 10.0 mi SW 19.6 mph 32.2 mph N/A   Overcast
3:56 PM 55.9 °F 35.1 °F 45% 29.78 in 10.0 mi SW 21.9 mph 32.2 mph N/A   Overcast
4:56 PM 54.0 °F 37.0 °F 53% 29.80 in 10.0 mi SW 20.7 mph 32.2 mph N/A   Overcast
5:56 PM 52.0 °F 37.9 °F 59% 29.81 in 10.0 mi SW 13.8 mph - 0.00 in   Mostly Cloudy
6:56 PM 51.1 °F 39.0 °F 63% 29.84 in 10.0 mi WSW 19.6 mph 27.6 mph N/A   Overcast
7:56 PM 48.0 °F 42.1 °F 80% 29.87 in 10.0 mi WSW 13.8 mph - 0.03 in Rain Light Rain
8:56 PM 48.0 °F 41.0 °F 77% 29.86 in 10.0 mi West 9.2 mph - 0.00 in   Overcast
9:56 PM 48.0 °F 42.1 °F 80% 29.88 in 10.0 mi West 13.8 mph 17.3 mph N/A   Overcast
10:56 PM 48.0 °F 41.0 °F 77% 29.90 in 10.0 mi SW 10.4 mph - N/A   Overcast
11:56 PM 48.0 °F 41.0 °F 77% 29.90 in 10.0 mi SW 13.8 mph - N/A   Overcast